Weather in Pervomajskoye

Russia / Tomsk District     57°04′23″N   86°14′05″E
temp.,
°C
wind,
m/s
gust,
m/s
humid.,
%
clouds,
%
prec.,
mm/h
press.,
hPa
HPBL,
m
8 may, sat
sat801:00+8w49675 0.1 1013246
04:00+6wsw4869100 0.0 1014169
07:00+7wsw613665 0.0 1014557
10:00+11w7134570 0.0 10132110
13:00+13wnw9133698 0.0 10122540
16:00+15nw71334100 0.0 10112423
19:00+10nnw685798 0.0 10131139
22:00+7nnw376955 0.0 1015453
9 may, sun
sun901:00+4nw49747 0.0 1016343
04:00+2nw488346 0.0 1017278
07:00+3nw47815 0.0 1019324
10:00+7nnw465820 0.0 10191147
13:00+10nnw5645100 0.0 10201996
16:00+10n664870 0.0 10211800
19:00+8n665621 0.0 10221204
22:00+5nne377267 0.0 1024217
10 may, mon
mon1001:00+5nne366456 0.0 1024210
04:00+3ene237714 0.0 102460
07:00+4ene37755 0.0 1024264
10:00+9ene34555 0.0 10241088
13:00+12ene674893 0.0 10221780
16:00+12ene6849100 0.0 10211755
19:00+11ene59605 0.0 1020792
22:00+9ne3765100 0.0 1020162
11 may, tue
tue1101:00+6ne39745 0.0 1019147
04:00+5ne38775 0.0 1019167
07:00+7ene411713 0.0 1020341
10:00+11ene710475 0.0 10191426
13:00+14ene78395 0.0 10191916
16:00+16ene683527 0.0 10182287
19:00+15ene57404 0.0 10182148
22:00+10ne38560 0.0 1019120
12 may, wed
wed1201:00+7ene411640 0.0 1019221
04:00+6ene39754 0.0 1019177
07:00+7ene48710 0.0 1019252
10:00+13ene57445 0.0 10191520
13:00+15ene463689 0.0 10182379
16:00+16ne4532100 0.0 10172420
19:00+15ne44395 0.0 10181879
22:00+10ne33545 0.0 101927